[Iaude] MPEC N152: THREE NEW TNOS
    mpec at cfa.harvard.edu 
    mpec at cfa.harvard.edu
       
    Mon Jul 15 05:24:34 EDT 2024
    
    
  
M.P.E.C. 2024-N152                                Issued 2024 July 15, 09:05 UT
     The Minor Planet Electronic Circulars contain information on unusual
         minor planets, routine data on comets and natural satellites,
         and occasional editorial announcements.  They are published
    on behalf of Division F of the International Astronomical Union by the
          Minor Planet Center, Smithsonian Astrophysical Observatory,
                          Cambridge, MA 02138, U.S.A.
			  
             Prepared using the Tamkin Foundation Computer Network
                              MPC at CFA.HARVARD.EDU
            URL https://www.minorplanetcenter.net/    ISSN 1523-6714
                                 THREE NEW TNOS                                 
Observations:
     K17BO4Y 1C2016 04 02.41460512 20 22.76 +00 04 22.4                WEN152T09
     K17BO4Y 1C2016 04 02.46902712 20 22.52 +00 04 24.0                WEN152T09
     K17BO4Y 1C2016 06 05.31719312 17 05.18 +00 23 32.2                WEN152T09
     K17BO4Y 1C2016 06 05.35611412 17 05.13 +00 23 31.9                WEN152T09
     K17BO4Y*4C2017 01 23.60759 12 29 30.51 -00 56 37.4          25.6 i1EN152T09
     K17BO4Y 4C2017 01 23.62095 12 29 30.48 -00 56 37.6          25.1 i1EN152T09
     K17BO4Y 4C2017 01 23.64653 12 29 30.45 -00 56 36.9          25.3 i1EN152T09
     K17BO4Y 4C2017 01 28.59808 12 29 22.23 -00 55 29.9          25.2 z1EN152T09
     K17BO4Y 4C2017 01 28.60345 12 29 22.21 -00 55 29.7          25.1 z1EN152T09
     K17BO4Y 4C2017 01 28.61691 12 29 22.21 -00 55 29.4          25.4 z1EN152T09
     K17BO4Y 4C2017 01 28.65069 12 29 22.16 -00 55 28.9          24.7 z1EN152T09
     K17BO4Y 1C2017 02 01.66248212 29 13.97 -00 54 25.2                WEN152T09
     K17BO4Y 1C2017 02 02.63612712 29 11.82 -00 54 08.7                WEN152T09
     K17BO4Y 1C2017 02 23.52165912 28 09.32 -00 46 38.0                WEN152T09
     K17BO4Y 1C2017 02 23.60590412 28 09.00 -00 46 35.7                WEN152T09
     K17BO4Y 1C2019 04 03.44004312 35 37.03 -01 34 57.1                WEN152T09
     K17BO4Y 1C2019 04 03.46421712 35 36.92 -01 34 56.4                WEN152T09
     K17DH0M 1C2016 04 05.44630312 32 22.06 -00 06 10.9                WEN152T09
     K17DH0M 1C2016 04 05.56426212 32 21.53 -00 06 07.6                WEN152T09
     K17DH0M 1C2017 01 30.65366412 41 28.79 -01 04 21.6                WEN152T09
     K17DH0M 1C2017 01 30.66782312 41 28.77 -01 04 21.2                WEN152T09
     K17DH0M 1C2017 02 02.66474612 41 23.16 -01 03 30.9                WEN152T09
     K17DH0M*4C2017 02 21.53656 12 40 32.45 -00 56 45.6          25.3 z1EN152T09
     K17DH0M 4C2017 02 21.55809 12 40 32.38 -00 56 45.4          24.8 z1EN152T09
     K17DH0M 4C2017 02 21.58500 12 40 32.28 -00 56 44.6          25.4 z1EN152T09
     K17DH0M 4C2017 02 21.60643 12 40 32.22 -00 56 44.3          24.6 z1EN152T09
     K17DH0M 4C2017 02 23.52726 12 40 25.74 -00 55 55.9          24.9 r1EN152T09
     K17DH0M 4C2017 02 23.60167 12 40 25.48 -00 55 54.1          24.9 r1EN152T09
     K17DH0M 4C2017 02 23.64192 12 40 25.34 -00 55 52.7          24.9 r1EN152T09
     K17DH0M 1C2019 04 03.44538712 48 09.45 -01 37 51.7                WEN152T09
     K17DH0M 1C2019 04 03.46956012 48 09.34 -01 37 50.9                WEN152T09
     K17DH0N 1C2016 04 05.45629912 37 21.74 +01 08 20.6                WEN152T09
     K17DH0N 1C2016 04 05.57424012 37 21.44 +01 08 22.6                WEN152T09
     K17DH0N*4C2017 02 21.50560 12 40 30.10 +00 48 19.6          24.6 z1EN152T09
     K17DH0N 4C2017 02 21.52849 12 40 30.05 +00 48 20.0          24.4 z1EN152T09
     K17DH0N 4C2017 02 21.54193 12 40 30.03 +00 48 20.5          24.4 z1EN152T09
     K17DH0N 4C2017 02 21.57429 12 40 29.96 +00 48 20.6          24.5 z1EN152T09
     K17DH0N 4C2017 02 21.59574 12 40 29.92 +00 48 21.0          24.9 z1EN152T09
     K17DH0N 4C2017 02 21.61448 12 40 29.87 +00 48 21.1          24.8 z1EN152T09
     K17DH0N 4C2017 02 23.62285 12 40 25.93 +00 48 51.7          25.5 r1EN152T09
     K17DH0N 4C2017 02 23.65247 12 40 25.89 +00 48 52.2          25.1 r1EN152T09
     K17DH0N 1C2017 04 02.48784212 38 56.46 +00 59 13.2                WEN152T09
     K17DH0N 1C2017 04 27.39220812 37 56.11 +01 05 17.8                WEN152T09
     K17DH0N 1C2017 04 27.41736312 37 56.05 +01 05 18.1                WEN152T09
     K17DH0N 1C2019 04 03.42384012 41 48.27 +00 42 50.2                WEN152T09
     K17DH0N 1C2019 04 03.45887312 41 48.18 +00 42 50.8                WEN152T09
     K17DH0N 1C2019 04 03.48298212 41 48.12 +00 42 51.2                WEN152T09
     K17DH0N 1C2019 05 09.44407712 40 24.34 +00 51 02.6                WEN152T09
Observer details:
T09 Subaru Telescope, Maunakea.  Observers , H. Aihara, Y. AlSayyad, M. Ando,
    R. Armstrong, J. Bosch, E. Egami, H. Furusawa, J. Furusawa, S. Harasawa,
    Y. Harikane, B.-C. Hsieh, H. Ikeda, K. Ito, I. Iwata, T. Kodama, M. Koike,
    M. Kokubo, Y. Komiyama, X. Li, Y. Liang, Y.-T. Lin, R. H. Lupton, N. B.
    Lust, L. A. MacArthur, K. Mawatari, S. Mineo, H. Miyatake, S. Miyazaki, S.
    More, T. Morishima, H. Murayama, K. Nakajima, F. Nakata, A. J. Nishizawa,
    M. Oguri, N. Okabe, Y. Okura, Y. Ono, K. Osato, M. Ouchi, Y.-C. Pan, A. A.
    Plazas Malagon, P. A. Price, S. L. Reed, E. S. Rykoff, T. Shibuya, M.
    Simunovic, M. A. Strauss, K. Sugimori, Y. Suto, N. Suzuki, M. Takada, Y.
    Takagi, T. Takata, S. Takita, M. Tanaka, S. Tang, D. S. Taranu, T. Terai,
    Y. Toba, E. L. Turner, H. Uchiyama, B. Vijarnwannaluk, C. Z. Waters, Y.
    Yamada, N. Yamamoto, T. Yamashita.  Measurers S. Deen, H. Fukuyama.  8.3-m
    Subaru Telescope + CCD, 8.2-m f/2.0 reflector + CCD(HSC).
Orbital elements:
2017 BY244                                                                      
Epoch 2024 Oct. 17.0 TT = JDT 2460600.5                 Alexandersen            
M 306.85336              (2000.0)            P               Q                  
n   0.00351420     Peri.  165.17058     -0.25126172     +0.96725859             
a  42.8467761      Node    90.26755     -0.89164891     -0.21693224             
e   0.0608439      Incl.    2.04903     -0.37660294     -0.13172404             
P 280              H    9.22          G   0.15           U   6                  
Residuals in seconds of arc
K1642  T09  0.0   0.0     K171N  T09  0.0   0.3+    K1722  T09  0.1+  0.1- 
K1642  T09  0.1+  0.0     K171S  T09  0.1-  0.1-    K172N  T09  0.1+  0.1- 
K1665  T09  0.0   0.1+    K171S  T09  0.3-  0.0     K172N  T09  0.1+  0.1+ 
K1665  T09  0.2-  0.3-    K171S  T09  0.1+  0.1+    K1943  T09  0.0   0.1- 
K171N  T09  0.0   0.3+    K171S  T09  0.4+  0.1+    K1943  T09  0.0   0.0  
K171N  T09  0.1-  0.1-    K1721  T09  0.2-  0.0     
2017 DM170                                                                      
Epoch 2024 Oct. 17.0 TT = JDT 2460600.5                 Alexandersen            
M  34.67757              (2000.0)            P               Q                  
n   0.00343078     Peri.   29.83852     -0.94835220     -0.31360304             
a  43.5385559      Node   131.80479     +0.27688812     -0.89181369             
e   0.0431864      Incl.    3.67370     +0.15479361     -0.32606974             
P 287              H    8.97          G   0.15           U   6                  
Residuals in seconds of arc
K1645  T09  0.0   0.1-    K172L  T09  0.1-  0.4+    K172N  T09  0.1+  0.2- 
K1645  T09  0.0   0.1-    K172L  T09  0.0   0.1+    K172N  T09  0.1+  0.2+ 
K171U  T09  0.1-  0.1-    K172L  T09  0.2-  0.2+    K1943  T09  0.0   0.1- 
K171U  T09  0.0   0.0     K172L  T09  0.0   0.1-    K1943  T09  0.0   0.0  
K1722  T09  0.0   0.1-    K172N  T09  0.1+  0.1-    
2017 DN170                                                                      
Epoch 2024 Oct. 17.0 TT = JDT 2460600.5                 Alexandersen            
M 184.45142              (2000.0)            P               Q                  
n   0.00240606     Peri.  245.30568     +0.98275772     -0.16894306             
a  55.1567420      Node   124.33750     +0.18462387     +0.91874274             
e   0.4435421      Incl.    5.22080     -0.01006404     +0.35688938             
P 410              H    6.03          G   0.15           U   7                  
Residuals in seconds of arc
K1645  T09  0.0   0.0     K172L  T09  0.1-  0.1-    K174R  T09  0.1-  0.0  
K1645  T09  0.1+  0.1+    K172L  T09  0.3-  0.2-    K1943  T09  0.0   0.0  
K172L  T09  0.0   0.1-    K172N  T09  0.0   0.1-    K1943  T09  0.0   0.0  
K172L  T09  0.1-  0.0     K172N  T09  0.3+  0.1-    K1943  T09  0.0   0.0  
K172L  T09  0.0   0.3+    K1742  T09  0.1+  0.1+    K1959  T09  0.1+  0.0  
K172L  T09  0.1-  0.1-    K174R  T09  0.0   0.1+    
M. P. C. Staff               (C) Copyright 2024 MPC           M.P.E.C. 2024-N152
    
    
More information about the Iaude
mailing list